GLOBALSTAR M095

Last updated on Sun Jun 21 2026 00:03:18 GMT+0000 (Coordinated Universal Time)

1 39077U 13005F 26171.23742538 -.00000085 00000+0 10425-3 0 9994 2 39077 52.0088 271.9306 0000171 132.1793 227.9088 12.62263517616255
UTC large
Height (km)
Speed (km/s)
/
Latitude / Longitude
Inclination (degrees)
Orbital Period (minutes)
Azimuth
Elevation
Range (km)
Doppler Factor

Next 0 passes for location: London (51.5072 / 0.1276)

No passes found over London.
GLOBALSTAR M095